* Astronomy

Members Login
Username 
 
Password 
    Remember Me  
Post Info TOPIC: Asteroid 2011 EB


L

Posts: 131433
Date:
Asteroid 2011 EB
Permalink  
 


Orbital elements:
2011 EB Earth MOID = 0.0035 AU
Epoch 2011 Feb. 8.0 TT = JDT 2455600.5 MPC
M 2.12075 (2000.0) P Q
n 0.28603678 Peri. 321.86214 -0.54137984 -0.84066285
a 2.2813301 Node 160.90301 +0.78147564 -0.50923461
e 0.5926032 Incl. 2.43898 +0.31016720 -0.18429890
P 3.45 H 27.0 G 0.15 U 7

MPEC 2011 - E04


The 11 - 24 metre wide asteroid 2011 EB made a close pass (2.4 lunar distances, 0.0063 AU), travelling at 10.28 km/second, to the Earth-Moon system on the 26th February, 2011 @ 11:29 UT ±00:36.

See more

The Lunar Distance (LD), the distance between Earth and the Moon, equals 384,401 km, (or 0.00256 AU).


__________________
Page 1 of 1  sorted by
 
Quick Reply

Please log in to post quick replies.



Create your own FREE Forum
Report Abuse
Powered by ActiveBoard